Regional Weather Roundup
Issued by NWS

Home | Current Version | Previous Version | Graphics & Text | Print | Product List | Glossary On
Versions: 1 2 3 4 5 6 7 8 9 10 11 12 13 14 15 16 17 18 19 20 21 22 23 24 25 26 27 28 29 30 31 32 33 34 35 36 37 38 39 40 41 42 43 44 45 46 47 48 49 50
000
ASUS43 KOAX 310602
RWRNE

WEATHER ROUNDUP FOR NEBRASKA
NATIONAL WEATHER SERVICE OMAHA NE
100 AM CDT FRI JUL 31 2015

NOTES: SATELLITE DATA IS BEING USED TO AUGMENT CLOUD COVER ABOVE
       12000 FEET.
       "FAIR" INDICATES FEW OR NO CLOUDS BELOW 12,000 FEET WITH NO
       SIGNIFICANT WEATHER AND/OR OBSTRUCTIONS TO VISIBILITY.

  * THESE STATIONS DO NOT REPORT WEATHER SUCH AS RAIN...SNOW OR FOG.

NEZ001>004-019>022-054>056-310700-
NEBRASKA PANHANDLE

CITY           SKY/WX    TMP DP  RH WIND       PRES   REMARKS
SCOTTSBLUFF    CLEAR     64  58  80 E7        30.27R
6HR MIN TEMP:  64; 6HR MAX TEMP:  89;

ALLIANCE       CLEAR     62  55  77 SE3       30.27S
6HR MIN TEMP:  60; 6HR MAX TEMP:  89;

CHADRON        CLEAR     59  50  72 NW3       30.22S
6HR MIN TEMP:  59; 6HR MAX TEMP:  90;

KIMBALL        CLEAR     63  55  75 SW6       30.32R
SIDNEY         CLEAR     59  55  87 S3        30.31R
6HR MIN TEMP:  56; 6HR MAX TEMP:  83; 6HR PCP: TRACE;

$$

NEZ057>060-069>072-079>082-310700-
SOUTHWEST NEBRASKA

CITY           SKY/WX    TMP DP  RH WIND       PRES   REMARKS
NORTH PLATTE   PTCLDY    65  60  84 NW3       30.22R
6HR MIN TEMP:  64; 6HR MAX TEMP:  83;

IMPERIAL       CLEAR     69  60  73 NW3       30.23F
6HR MIN TEMP:  67; 6HR MAX TEMP:  89;

MCCOOK         CLEAR     71  63  75 S3        30.20S
6HR MIN TEMP:  71; 6HR MAX TEMP:  88;

$$

NEZ005>010-023>029-035>040-094-310700-
NORTH CENTRAL NEBRASKA

CITY           SKY/WX    TMP DP  RH WIND       PRES   REMARKS
VALENTINE      CLEAR     62  52  69 CALM      30.20S
6HR MIN TEMP:  62; 6HR MAX TEMP:  90;

AINSWORTH      CLEAR     67  56  67 CALM      30.20S
BROKEN BOW     CLEAR     66  63  90 N5        30.20R
6HR MIN TEMP:  66; 6HR MAX TEMP:  88;

ORD            CLEAR     67  64  90 NW5       30.16R
6HR MIN TEMP:  66; 6HR MAX TEMP:  86;

$$

NEZ041-046>049-061>064-073>077-083>087-310700-
SOUTH CENTRAL NEBRASKA

CITY           SKY/WX    TMP DP  RH WIND       PRES   REMARKS
GRAND ISLAND   CLEAR     69  66  90 S6        30.18R
6HR MIN TEMP:  69; 6HR MAX TEMP:  88;

AURORA         CLEAR     70  67  89 S6        30.17S
HASTINGS       PTCLDY    73  67  81 S5        30.18R
6HR MIN TEMP:  73; 6HR MAX TEMP:  87;

KEARNEY *      PTCLDY    72  64  78 S6        30.19R
$$

NEZ011>018-030>034-042>045-310700-
NORTHEAST NEBRASKA

CITY           SKY/WX    TMP DP  RH WIND       PRES   REMARKS
NORFOLK        CLEAR     71  67  87 SE5       30.15R
6HR MIN TEMP:  71; 6HR MAX TEMP:  86;

BLAIR          MOCLDY    72  61  67 SW6       30.15R
COLUMBUS *     CLEAR     73  59  60 SW6       30.15R
FREMONT        MOCLDY    76  62  61 N14G22    30.19R
TEKAMAH        MOCLDY    72  68  87 S5        30.14R
6HR MIN TEMP:  70; 6HR MAX TEMP:  85;

$$

NEZ050>053-065>068-078-088>093-310700-
SOUTHEAST NEBRASKA

CITY           SKY/WX    TMP DP  RH WIND       PRES   REMARKS
LINCOLN        CLEAR     70  61  73 SE3       30.15S
6HR MIN TEMP:  70; 6HR MAX TEMP:  88;

OMAHA EPPLEY   PTCLDY    74  66  76 SE6       30.14R
6HR MIN TEMP:  74; 6HR MAX TEMP:  90;

FALLS CITY     PTCLDY    71  64  78 SW7       30.15S
6HR MIN TEMP:  71; 6HR MAX TEMP:  84;

$$

NEZ044-045-051>053-067-310700-
OMAHA AREA

CITY           SKY/WX    TMP DP  RH WIND       PRES   REMARKS
OMAHA EPPLEY   PTCLDY    74  66  76 SE6       30.14R
6HR MIN TEMP:  74; 6HR MAX TEMP:  90;

BLAIR          MOCLDY    72  61  67 SW6       30.15R
FREMONT        MOCLDY    76  62  61 N14G22    30.19R
OFFUTT AFB     CLEAR     71  65  82 VRB2      30.13S
$$



USA.gov is the U.S. government's official web portal to all federal, state and local government web resources and services.